Time,TemperatureF,DewpointF,PressureIn,WindDirection,WindDirectionDegrees,WindSpeedMPH,WindSpeedGustMPH,Humidity,HourlyPrecipIn,Conditions,Clouds,dailyrainin,SoftwareType,DateUTC
2013-11-22 00:00:00,44.4,33.8,28.97,SE,135,3.1,3.1,66,0.00,,---,0.00,VWS V14.01,2013-11-22 05:00:00,
2013-11-22 00:01:00,44.4,33.8,28.97,SE,135,3.1,3.1,66,0.00,,---,0.00,VWS V14.01,2013-11-22 05:01:00,
2013-11-22 00:02:00,44.6,33.6,28.97,SE,135,3.1,3.1,65,0.00,,---,0.00,VWS V14.01,2013-11-22 05:02:00,
2013-11-22 00:04:00,44.6,33.6,28.97,SE,135,3.1,3.1,65,0.00,,---,0.00,VWS V14.01,2013-11-22 05:04:00,
2013-11-22 00:05:00,44.6,33.6,28.97,SE,135,3.1,3.1,65,0.00,,---,0.00,VWS V14.01,2013-11-22 05:05:00,
2013-11-22 00:06:00,44.6,33.6,28.97,SE,135,3.1,3.1,65,0.00,,---,0.00,VWS V14.01,2013-11-22 05:06:00,
2013-11-22 00:11:00,44.4,33.8,28.97,SE,135,3.1,3.1,66,0.00,,---,0.00,VWS V14.01,2013-11-22 05:11:00,
2013-11-22 00:16:00,44.6,33.6,28.97,SE,135,3.1,3.1,65,0.00,,---,0.00,VWS V14.01,2013-11-22 05:16:00,
2013-11-22 00:21:00,44.8,33.8,28.97,SE,135,3.1,3.1,65,0.00,,---,0.00,VWS V14.01,2013-11-22 05:21:00,
2013-11-22 00:26:00,45.0,34.3,28.97,SE,135,3.1,3.1,66,0.00,,---,0.00,VWS V14.01,2013-11-22 05:26:00,
2013-11-22 00:28:00,45.0,34.3,28.97,SE,135,3.1,3.1,66,0.00,,---,0.00,VWS V14.01,2013-11-22 05:28:00,
2013-11-22 00:33:00,45.1,34.1,28.97,SE,135,3.1,3.1,65,0.00,,---,0.00,VWS V14.01,2013-11-22 05:33:00,
2013-11-22 00:38:00,45.3,34.6,28.97,SE,135,3.1,3.1,66,0.00,,---,0.00,VWS V14.01,2013-11-22 05:38:00,
2013-11-22 00:43:00,45.3,33.9,28.97,SE,135,3.1,3.1,64,0.00,,---,0.00,VWS V14.01,2013-11-22 05:43:00,
2013-11-22 00:48:00,46.2,33.9,28.97,SE,135,3.1,3.1,62,0.00,,---,0.00,VWS V14.01,2013-11-22 05:48:00,
2013-11-22 00:53:00,46.6,33.5,28.97,SE,135,3.1,3.1,60,0.00,,---,0.00,VWS V14.01,2013-11-22 05:53:00,
2013-11-22 00:59:00,46.8,33.6,28.97,SE,135,3.1,3.1,60,0.00,,---,0.00,VWS V14.01,2013-11-22 05:59:00,
2013-11-22 01:04:00,46.6,33.5,28.97,SE,135,3.1,3.1,60,0.00,,---,0.00,VWS V14.01,2013-11-22 06:04:00,
2013-11-22 01:09:00,46.8,34.0,28.97,SE,135,3.1,3.1,61,0.00,,---,0.00,VWS V14.01,2013-11-22 06:09:00,
2013-11-22 01:14:00,46.9,34.2,28.97,SE,135,3.1,3.1,61,0.00,,---,0.00,VWS V14.01,2013-11-22 06:14:00,
2013-11-22 01:19:00,46.9,34.6,28.97,SE,135,3.1,3.1,62,0.00,,---,0.00,VWS V14.01,2013-11-22 06:19:00,
2013-11-22 01:24:00,46.6,34.3,28.97,SE,135,3.1,3.1,62,0.00,,---,0.00,VWS V14.01,2013-11-22 06:24:00,
2013-11-22 01:30:00,46.4,34.9,28.97,SE,135,3.1,3.1,64,0.00,,---,0.00,VWS V14.01,2013-11-22 06:30:00,
2013-11-22 01:35:00,45.9,35.2,28.97,SE,135,3.1,3.1,66,0.00,,---,0.00,VWS V14.01,2013-11-22 06:35:00,
2013-11-22 01:40:00,45.7,35.7,28.97,SE,135,3.1,3.1,68,0.00,,---,0.00,VWS V14.01,2013-11-22 06:40:00,
2013-11-22 01:45:00,45.3,35.8,28.97,SE,135,3.1,3.1,69,0.00,,---,0.00,VWS V14.01,2013-11-22 06:45:00,
2013-11-22 01:50:00,45.0,36.1,28.94,SE,135,3.1,3.1,71,0.00,,---,0.00,VWS V14.01,2013-11-22 06:50:00,
2013-11-22 01:55:00,45.0,36.5,28.94,SE,135,3.1,3.1,72,0.00,,---,0.00,VWS V14.01,2013-11-22 06:55:00,
2013-11-22 02:00:00,44.8,36.7,28.94,SE,135,3.1,3.1,73,0.00,,---,0.00,VWS V14.01,2013-11-22 07:00:00,
2013-11-22 02:05:00,45.0,39.2,28.97,SE,135,3.1,3.1,80,0.00,,---,0.00,VWS V14.01,2013-11-22 07:05:00,
2013-11-22 02:10:00,45.1,39.3,28.97,SE,135,3.1,3.1,80,0.00,,---,0.00,VWS V14.01,2013-11-22 07:10:00,
2013-11-22 02:15:00,45.0,39.8,28.97,SE,135,3.1,3.1,82,0.00,,---,0.00,VWS V14.01,2013-11-22 07:15:00,
2013-11-22 02:20:00,44.8,38.7,28.97,SE,135,3.1,3.1,79,0.00,,---,0.00,VWS V14.01,2013-11-22 07:20:00,
2013-11-22 02:25:00,44.8,38.3,28.97,SE,135,3.1,3.1,78,0.00,,---,0.00,VWS V14.01,2013-11-22 07:25:00,
2013-11-22 02:30:00,44.8,38.3,28.97,SE,135,3.1,3.1,78,0.00,,---,0.00,VWS V14.01,2013-11-22 07:30:00,
2013-11-22 02:35:00,45.0,39.2,28.97,SE,135,3.1,3.1,80,0.00,,---,0.00,VWS V14.01,2013-11-22 07:35:00,
2013-11-22 02:40:00,45.1,39.7,28.97,SE,135,3.1,3.1,81,0.00,,---,0.00,VWS V14.01,2013-11-22 07:40:00,
2013-11-22 02:45:00,45.1,39.7,28.97,SE,135,3.1,3.1,81,0.00,,---,0.00,VWS V14.01,2013-11-22 07:45:00,
2013-11-22 02:50:00,45.1,39.7,28.97,SE,135,3.1,3.1,81,0.00,,---,0.00,VWS V14.01,2013-11-22 07:50:00,
2013-11-22 02:55:00,45.1,40.0,28.97,SE,135,3.1,3.1,82,0.00,,---,0.00,VWS V14.01,2013-11-22 07:55:00,
2013-11-22 03:00:00,45.0,40.1,28.97,SE,135,3.1,3.1,83,0.00,,---,0.00,VWS V14.01,2013-11-22 08:00:00,
2013-11-22 03:05:00,45.0,40.7,28.97,SE,135,3.1,3.1,85,0.00,,---,0.00,VWS V14.01,2013-11-22 08:05:00,
2013-11-22 03:10:00,44.8,39.6,28.97,SE,135,3.1,3.1,82,0.00,,---,0.00,VWS V14.01,2013-11-22 08:10:00,
2013-11-22 03:15:00,44.6,40.1,28.97,SE,135,3.1,3.1,84,0.00,,---,0.00,VWS V14.01,2013-11-22 08:15:00,
2013-11-22 03:20:00,44.6,40.1,28.97,SE,135,3.1,3.1,84,0.00,,---,0.00,VWS V14.01,2013-11-22 08:20:00,
2013-11-22 03:25:00,44.6,40.4,28.97,SE,135,3.1,3.1,85,0.00,,---,0.00,VWS V14.01,2013-11-22 08:25:00,
2013-11-22 03:30:00,44.8,40.5,28.97,SE,135,3.1,3.1,85,0.00,,---,0.00,VWS V14.01,2013-11-22 08:30:00,
2013-11-22 03:35:00,44.8,40.5,28.97,SE,135,3.1,3.1,85,0.00,,---,0.00,VWS V14.01,2013-11-22 08:35:00,
2013-11-22 03:40:00,44.8,41.2,28.97,SE,135,3.1,3.1,87,0.00,,---,0.00,VWS V14.01,2013-11-22 08:40:00,
2013-11-22 03:45:00,44.8,40.9,28.97,SE,135,3.1,3.1,86,0.00,,---,0.00,VWS V14.01,2013-11-22 08:45:00,
2013-11-22 03:50:00,44.8,40.9,28.94,SE,135,3.1,3.1,86,0.00,,---,0.00,VWS V14.01,2013-11-22 08:50:00,
2013-11-22 03:55:00,44.8,40.9,28.94,SE,135,3.1,3.1,86,0.00,,---,0.00,VWS V14.01,2013-11-22 08:55:00,
2013-11-22 04:01:00,44.6,40.7,28.94,SE,135,3.1,3.1,86,0.00,,---,0.00,VWS V14.01,2013-11-22 09:01:00,
2013-11-22 04:06:00,44.6,41.0,28.94,SE,135,3.1,3.1,87,0.00,,---,0.00,VWS V14.01,2013-11-22 09:06:00,
2013-11-22 04:11:00,44.8,40.9,28.94,SE,135,3.1,3.1,86,0.00,,---,0.00,VWS V14.01,2013-11-22 09:11:00,
2013-11-22 04:16:00,44.8,41.2,28.94,SE,135,3.1,3.1,87,0.00,,---,0.00,VWS V14.01,2013-11-22 09:16:00,
2013-11-22 04:21:00,44.8,40.9,28.97,SE,135,3.1,3.1,86,0.00,,---,0.00,VWS V14.01,2013-11-22 09:21:00,
2013-11-22 04:26:00,44.8,41.2,28.97,SE,135,3.1,3.1,87,0.00,,---,0.00,VWS V14.01,2013-11-22 09:26:00,
2013-11-22 04:31:00,45.0,41.6,28.97,SE,135,3.1,3.1,88,0.00,,---,0.00,VWS V14.01,2013-11-22 09:31:00,
2013-11-22 04:36:00,44.8,41.2,28.94,SE,135,3.1,3.1,87,0.00,,---,0.00,VWS V14.01,2013-11-22 09:36:00,
2013-11-22 04:41:00,44.8,41.2,28.94,SE,135,3.1,3.1,87,0.00,,---,0.00,VWS V14.01,2013-11-22 09:41:00,
2013-11-22 04:46:00,45.0,41.9,28.94,SE,135,3.1,3.1,89,0.00,,---,0.00,VWS V14.01,2013-11-22 09:46:00,
2013-11-22 04:51:00,45.0,41.6,28.94,SE,135,3.1,3.1,88,0.00,,---,0.00,VWS V14.01,2013-11-22 09:51:00,
2013-11-22 04:56:00,45.1,42.4,28.94,SE,135,3.1,3.1,90,0.00,,---,0.00,VWS V14.01,2013-11-22 09:56:00,
2013-11-22 05:01:00,45.1,43.0,28.94,SE,135,3.1,3.1,92,0.00,,---,0.00,VWS V14.01,2013-11-22 10:01:00,
2013-11-22 05:06:00,45.3,43.1,28.94,SE,135,3.1,3.1,92,0.00,,---,0.00,VWS V14.01,2013-11-22 10:06:00,
2013-11-22 05:11:00,45.5,43.6,28.94,SE,135,3.1,3.1,93,0.00,,---,0.00,VWS V14.01,2013-11-22 10:11:00,
2013-11-22 05:16:00,45.5,43.6,28.94,SE,135,3.1,3.1,93,0.00,,---,0.00,VWS V14.01,2013-11-22 10:16:00,
2013-11-22 05:21:00,45.5,43.0,28.91,SE,135,3.1,3.1,91,0.00,,---,0.00,VWS V14.01,2013-11-22 10:21:00,
2013-11-22 05:26:00,45.7,42.9,28.91,SE,135,3.1,3.1,90,0.00,,---,0.00,VWS V14.01,2013-11-22 10:26:00,
2013-11-22 05:31:00,46.0,43.6,28.91,SE,135,3.1,3.1,91,0.00,,---,0.00,VWS V14.01,2013-11-22 10:31:00,
2013-11-22 05:36:00,46.0,43.6,28.91,SE,135,3.1,3.1,91,0.00,,---,0.00,VWS V14.01,2013-11-22 10:36:00,
2013-11-22 05:41:00,46.2,43.7,28.91,SE,135,3.1,3.1,91,0.00,,---,0.00,VWS V14.01,2013-11-22 10:41:00,
2013-11-22 05:47:00,46.4,43.9,28.91,SE,135,3.1,3.1,91,0.00,,---,0.00,VWS V14.01,2013-11-22 10:47:00,
2013-11-22 05:52:00,46.4,43.9,28.94,SE,135,3.1,3.1,91,0.00,,---,0.00,VWS V14.01,2013-11-22 10:52:00,
2013-11-22 05:58:00,46.4,43.9,28.94,SE,135,3.1,3.1,91,0.00,,---,0.00,VWS V14.01,2013-11-22 10:58:00,
2013-11-22 06:03:00,46.6,44.1,28.94,SE,135,3.1,3.1,91,0.00,,---,0.00,VWS V14.01,2013-11-22 11:03:00,
2013-11-22 06:08:00,46.6,44.1,28.91,SE,135,3.1,3.1,91,0.00,,---,0.00,VWS V14.01,2013-11-22 11:08:00,
2013-11-22 06:13:00,46.8,44.6,28.91,SE,135,3.1,3.1,92,0.00,,---,0.00,VWS V14.01,2013-11-22 11:13:00,
2013-11-22 06:18:00,46.8,44.3,28.91,SE,135,3.1,3.1,91,0.00,,---,0.00,VWS V14.01,2013-11-22 11:18:00,
2013-11-22 06:23:00,46.8,44.3,28.91,SE,135,3.1,3.1,91,0.00,,---,0.00,VWS V14.01,2013-11-22 11:23:00,
2013-11-22 06:28:00,46.8,44.3,28.91,SE,135,3.1,3.1,91,0.00,,---,0.00,VWS V14.01,2013-11-22 11:28:00,
2013-11-22 06:33:00,46.9,44.5,28.91,SE,135,3.1,3.1,91,0.00,,---,0.00,VWS V14.01,2013-11-22 11:33:00,
2013-11-22 06:38:00,46.9,44.5,28.91,SE,135,3.1,3.1,91,0.00,,---,0.00,VWS V14.01,2013-11-22 11:38:00,
2013-11-22 06:43:00,46.9,44.7,28.91,SE,135,3.1,3.1,92,0.00,,---,0.00,VWS V14.01,2013-11-22 11:43:00,
2013-11-22 06:48:00,47.1,45.2,28.91,SE,135,3.1,3.1,93,0.00,,---,0.00,VWS V14.01,2013-11-22 11:48:00,
2013-11-22 06:53:00,47.1,45.2,28.94,SE,135,3.1,3.1,93,0.00,,---,0.00,VWS V14.01,2013-11-22 11:53:00,
2013-11-22 06:58:00,47.1,44.9,28.94,SE,135,3.1,3.1,92,0.00,,---,0.00,VWS V14.01,2013-11-22 11:58:00,
2013-11-22 07:03:00,47.1,45.2,28.94,SE,135,3.1,3.1,93,0.00,,---,0.00,VWS V14.01,2013-11-22 12:03:00,
2013-11-22 07:08:00,47.3,45.4,28.91,SE,135,3.1,3.1,93,0.00,,---,0.00,VWS V14.01,2013-11-22 12:08:00,
2013-11-22 07:13:00,47.3,45.4,28.91,SE,135,3.1,3.1,93,0.00,,---,0.00,VWS V14.01,2013-11-22 12:13:00,
2013-11-22 07:18:00,47.3,45.4,28.91,SE,135,3.1,3.1,93,0.00,,---,0.00,VWS V14.01,2013-11-22 12:18:00,
2013-11-22 07:23:00,47.3,45.4,28.91,SE,135,3.1,3.1,93,0.00,,---,0.00,VWS V14.01,2013-11-22 12:23:00,
2013-11-22 07:28:00,47.3,45.4,28.91,SE,135,3.1,3.1,93,0.00,,---,0.00,VWS V14.01,2013-11-22 12:28:00,
2013-11-22 07:33:00,47.5,45.6,28.91,SE,135,3.1,3.1,93,0.00,,---,0.00,VWS V14.01,2013-11-22 12:33:00,
2013-11-22 07:38:00,47.5,45.6,28.91,SE,135,3.1,3.1,93,0.00,,---,0.00,VWS V14.01,2013-11-22 12:38:00,
2013-11-22 07:43:00,47.5,45.6,28.91,SE,135,3.1,3.1,93,0.00,,---,0.00,VWS V14.01,2013-11-22 12:43:00,
2013-11-22 07:48:00,47.7,46.0,28.91,SE,135,3.1,3.1,94,0.00,,---,0.00,VWS V14.01,2013-11-22 12:48:00,
2013-11-22 07:53:00,47.7,46.0,28.91,SE,135,3.1,3.1,94,0.00,,---,0.00,VWS V14.01,2013-11-22 12:53:00,
2013-11-22 07:58:00,47.8,46.2,28.91,SE,135,3.1,3.1,94,0.00,,---,0.00,VWS V14.01,2013-11-22 12:58:00,
2013-11-22 08:03:00,47.8,46.2,28.91,SE,135,3.1,3.1,94,0.00,,---,0.00,VWS V14.01,2013-11-22 13:03:00,
2013-11-22 08:08:00,47.8,46.2,28.91,SE,135,3.1,3.1,94,0.00,,---,0.00,VWS V14.01,2013-11-22 13:08:00,
2013-11-22 08:13:00,47.8,45.9,28.91,SE,135,3.1,3.1,93,0.00,,---,0.00,VWS V14.01,2013-11-22 13:13:00,
2013-11-22 08:18:00,47.8,46.2,28.91,SE,135,3.1,3.1,94,0.00,,---,0.00,VWS V14.01,2013-11-22 13:18:00,
2013-11-22 08:23:00,48.0,46.4,28.91,SE,135,3.1,3.1,94,0.00,,---,0.00,VWS V14.01,2013-11-22 13:23:00,
2013-11-22 08:28:00,48.0,46.4,28.91,SE,135,3.1,3.1,94,0.00,,---,0.00,VWS V14.01,2013-11-22 13:28:00,
2013-11-22 08:33:00,48.2,46.6,28.91,SE,135,3.1,3.1,94,0.00,,---,0.00,VWS V14.01,2013-11-22 13:33:00,
2013-11-22 08:38:00,48.2,46.6,28.91,SE,135,3.1,3.1,94,0.00,,---,0.00,VWS V14.01,2013-11-22 13:38:00,
2013-11-22 08:43:00,48.4,46.7,28.91,SE,135,3.1,3.1,94,0.00,,---,0.00,VWS V14.01,2013-11-22 13:43:00,
2013-11-22 08:48:00,48.4,46.7,28.91,SE,135,3.1,3.1,94,0.00,,---,0.00,VWS V14.01,2013-11-22 13:48:00,
2013-11-22 08:53:00,48.4,46.7,28.91,SE,135,3.1,3.1,94,0.00,,---,0.00,VWS V14.01,2013-11-22 13:53:00,
2013-11-22 08:58:00,48.6,46.9,28.91,SE,135,3.1,3.1,94,0.00,,---,0.00,VWS V14.01,2013-11-22 13:58:00,
2013-11-22 09:03:00,48.6,46.9,28.91,SE,135,3.1,3.1,94,0.00,,---,0.00,VWS V14.01,2013-11-22 14:03:00,
2013-11-22 09:08:00,48.7,47.4,28.91,SE,135,3.1,3.1,95,0.00,,---,0.00,VWS V14.01,2013-11-22 14:08:00,
2013-11-22 09:13:00,48.7,47.4,28.91,SE,135,3.1,3.1,95,0.00,,---,0.00,VWS V14.01,2013-11-22 14:13:00,
2013-11-22 09:18:00,48.7,47.4,28.91,SE,135,3.1,3.1,95,0.00,,---,0.00,VWS V14.01,2013-11-22 14:18:00,
2013-11-22 09:23:00,48.9,47.5,28.91,SE,135,3.1,3.1,95,0.00,,---,0.00,VWS V14.01,2013-11-22 14:23:00,
2013-11-22 09:28:00,49.1,47.7,28.91,SE,135,3.1,3.1,95,0.00,,---,0.00,VWS V14.01,2013-11-22 14:28:00,
2013-11-22 09:33:00,49.1,47.7,28.91,SE,135,3.1,3.1,95,0.00,,---,0.00,VWS V14.01,2013-11-22 14:33:00,
2013-11-22 09:38:00,49.3,47.9,28.88,SE,135,3.1,3.1,95,0.00,,---,0.00,VWS V14.01,2013-11-22 14:38:00,
2013-11-22 09:43:00,49.3,47.9,28.88,SE,135,3.1,3.1,95,0.00,,---,0.00,VWS V14.01,2013-11-22 14:43:00,
2013-11-22 09:48:00,49.5,48.1,28.88,SE,135,3.1,3.1,95,0.00,,---,0.00,VWS V14.01,2013-11-22 14:48:00,
2013-11-22 09:53:00,49.5,48.4,28.88,SE,135,3.1,3.1,96,0.00,,---,0.00,VWS V14.01,2013-11-22 14:53:00,
2013-11-22 09:58:00,49.5,48.4,28.88,SE,135,3.1,3.1,96,0.00,,---,0.00,VWS V14.01,2013-11-22 14:58:00,
2013-11-22 10:03:00,49.5,48.4,28.88,SE,135,3.1,3.1,96,0.00,,---,0.00,VWS V14.01,2013-11-22 15:03:00,
2013-11-22 10:08:00,49.5,48.1,28.91,SE,135,3.1,3.1,95,0.00,,---,0.00,VWS V14.01,2013-11-22 15:08:00,
2013-11-22 10:13:00,49.6,48.3,28.91,SE,135,3.1,3.1,95,0.00,,---,0.00,VWS V14.01,2013-11-22 15:13:00,
2013-11-22 10:18:00,49.6,48.3,28.91,SE,135,3.1,3.1,95,0.00,,---,0.00,VWS V14.01,2013-11-22 15:18:00,
2013-11-22 10:23:00,49.6,48.3,28.91,SE,135,3.1,3.1,95,0.00,,---,0.00,VWS V14.01,2013-11-22 15:23:00,
2013-11-22 10:28:00,49.6,48.3,28.91,SE,135,3.1,3.1,95,0.00,,---,0.00,VWS V14.01,2013-11-22 15:28:00,
2013-11-22 10:33:00,49.6,48.3,28.91,SE,135,3.1,3.1,95,0.00,,---,0.00,VWS V14.01,2013-11-22 15:33:00,
2013-11-22 10:38:00,49.6,48.5,28.91,SE,135,3.1,3.1,96,0.00,,---,0.00,VWS V14.01,2013-11-22 15:38:00,
2013-11-22 10:43:00,49.6,48.5,28.91,SE,135,3.1,3.1,96,0.00,,---,0.00,VWS V14.01,2013-11-22 15:43:00,
2013-11-22 10:52:00,49.8,48.7,28.91,SE,135,3.1,3.1,96,0.00,,---,0.00,VWS V14.01,2013-11-22 15:52:00,
2013-11-22 10:57:00,49.8,48.7,28.91,SE,135,3.1,3.1,96,0.00,,---,0.00,VWS V14.01,2013-11-22 15:57:00,
2013-11-22 11:02:00,49.8,48.7,28.91,SE,135,3.1,3.1,96,0.00,,---,0.00,VWS V14.01,2013-11-22 16:02:00,
2013-11-22 11:07:00,49.8,48.7,28.91,SE,135,3.1,3.1,96,0.00,,---,0.00,VWS V14.01,2013-11-22 16:07:00,
2013-11-22 11:13:00,49.8,48.7,28.91,SE,135,3.1,3.1,96,0.00,,---,0.00,VWS V14.01,2013-11-22 16:13:00,
2013-11-22 11:18:00,49.8,48.7,28.91,SE,135,3.1,3.1,96,0.00,,---,0.00,VWS V14.01,2013-11-22 16:18:00,
2013-11-22 11:23:00,49.8,48.7,28.91,SE,135,3.1,3.1,96,0.00,,---,0.00,VWS V14.01,2013-11-22 16:23:00,
2013-11-22 11:29:00,49.8,48.7,28.91,SE,135,3.1,3.1,96,0.00,,---,0.00,VWS V14.01,2013-11-22 16:29:00,
2013-11-22 11:34:00,49.8,48.7,28.91,SE,135,3.1,3.1,96,0.00,,---,0.00,VWS V14.01,2013-11-22 16:34:00,
2013-11-22 11:39:00,50.0,48.9,28.91,SE,135,3.1,3.1,96,0.00,,---,0.00,VWS V14.01,2013-11-22 16:39:00,
2013-11-22 11:44:00,50.0,48.9,28.91,SE,135,3.1,3.1,96,0.00,,---,0.00,VWS V14.01,2013-11-22 16:44:00,
2013-11-22 11:49:00,50.0,49.2,28.91,SE,135,3.1,3.1,97,0.00,,---,0.00,VWS V14.01,2013-11-22 16:49:00,
2013-11-22 11:54:00,50.0,49.2,28.91,SE,135,3.1,3.1,97,0.00,,---,0.00,VWS V14.01,2013-11-22 16:54:00,
2013-11-22 11:59:00,50.2,49.4,28.91,SE,135,3.1,3.1,97,0.00,,---,0.00,VWS V14.01,2013-11-22 16:59:00,
2013-11-22 12:04:00,50.2,49.4,28.91,SE,135,3.1,3.1,97,0.00,,---,0.00,VWS V14.01,2013-11-22 17:04:00,
2013-11-22 12:09:00,50.2,49.4,28.88,SE,135,3.1,3.1,97,0.00,,---,0.00,VWS V14.01,2013-11-22 17:09:00,
2013-11-22 12:14:00,50.4,49.5,28.88,SE,135,3.1,3.1,97,0.00,,---,0.00,VWS V14.01,2013-11-22 17:14:00,
2013-11-22 12:19:00,50.4,49.5,28.88,SE,135,3.1,3.1,97,0.00,,---,0.00,VWS V14.01,2013-11-22 17:19:00,
2013-11-22 12:24:00,50.5,49.7,28.88,SE,135,3.1,3.1,97,0.00,,---,0.00,VWS V14.01,2013-11-22 17:24:00,
2013-11-22 12:29:00,50.5,49.7,28.88,SE,135,3.1,3.1,97,0.00,,---,0.00,VWS V14.01,2013-11-22 17:29:00,
2013-11-22 12:34:00,50.7,49.9,28.88,SE,135,3.1,3.1,97,0.00,,---,0.00,VWS V14.01,2013-11-22 17:34:00,
2013-11-22 12:39:00,50.5,49.7,28.88,SE,135,3.1,3.1,97,0.00,,---,0.00,VWS V14.01,2013-11-22 17:39:00,
2013-11-22 12:44:00,50.5,49.7,28.88,SE,135,3.1,3.1,97,0.00,,---,0.00,VWS V14.01,2013-11-22 17:44:00,
2013-11-22 12:49:00,50.5,49.7,28.88,SE,135,3.1,3.1,97,0.00,,---,0.00,VWS V14.01,2013-11-22 17:49:00,
2013-11-22 12:54:00,50.7,49.9,28.85,SE,135,3.1,3.1,97,0.00,,---,0.00,VWS V14.01,2013-11-22 17:54:00,
2013-11-22 12:59:00,50.7,49.9,28.85,SE,135,3.1,3.1,97,0.00,,---,0.00,VWS V14.01,2013-11-22 17:59:00,
2013-11-22 13:04:00,50.5,49.7,28.85,SE,135,3.1,3.1,97,0.00,,---,0.00,VWS V14.01,2013-11-22 18:04:00,
2013-11-22 13:09:00,50.5,49.7,28.85,SE,135,3.1,3.1,97,0.00,,---,0.00,VWS V14.01,2013-11-22 18:09:00,
2013-11-22 13:14:00,50.4,49.5,28.85,SE,135,3.1,3.1,97,0.00,,---,0.00,VWS V14.01,2013-11-22 18:14:00,
2013-11-22 13:19:00,50.4,49.5,28.85,SE,135,3.1,3.1,97,0.00,,---,0.00,VWS V14.01,2013-11-22 18:19:00,
2013-11-22 13:24:00,50.4,49.5,28.85,SE,135,3.1,3.1,97,0.00,,---,0.00,VWS V14.01,2013-11-22 18:24:00,
2013-11-22 13:29:00,50.4,49.5,28.85,SE,135,3.1,3.1,97,0.00,,---,0.00,VWS V14.01,2013-11-22 18:29:00,
2013-11-22 13:34:00,50.2,49.4,28.85,SE,135,3.1,3.1,97,0.00,,---,0.00,VWS V14.01,2013-11-22 18:34:00,
2013-11-22 13:39:00,50.2,49.4,28.85,SE,135,3.1,3.1,97,0.00,,---,0.00,VWS V14.01,2013-11-22 18:39:00,
2013-11-22 13:44:00,50.2,49.4,28.85,SE,135,3.1,3.1,97,0.00,,---,0.00,VWS V14.01,2013-11-22 18:44:00,
2013-11-22 13:49:00,50.2,49.4,28.85,SE,135,3.1,3.1,97,0.00,,---,0.00,VWS V14.01,2013-11-22 18:49:00,
2013-11-22 13:54:00,50.2,49.4,28.82,SE,135,3.1,3.1,97,0.00,,---,0.00,VWS V14.01,2013-11-22 18:54:00,
2013-11-22 13:59:00,50.2,49.4,28.82,SE,135,3.1,3.1,97,0.00,,---,0.00,VWS V14.01,2013-11-22 18:59:00,
2013-11-22 14:04:00,50.0,49.2,28.82,SE,135,3.1,3.1,97,0.00,,---,0.00,VWS V14.01,2013-11-22 19:04:00,
2013-11-22 14:09:00,50.0,49.2,28.82,SE,135,3.1,3.1,97,0.00,,---,0.00,VWS V14.01,2013-11-22 19:09:00,
2013-11-22 14:14:00,49.8,49.3,28.82,SE,135,3.1,3.1,98,0.00,,---,0.00,VWS V14.01,2013-11-22 19:14:00,
2013-11-22 14:19:00,49.6,49.1,28.82,SE,135,3.1,3.1,98,0.00,,---,0.00,VWS V14.01,2013-11-22 19:19:00,
2013-11-22 14:24:00,49.5,48.9,28.82,SE,135,3.1,3.1,98,0.00,,---,0.00,VWS V14.01,2013-11-22 19:24:00,
2013-11-22 14:30:00,49.5,48.9,28.82,SE,135,3.1,3.1,98,0.00,,---,0.00,VWS V14.01,2013-11-22 19:30:00,
2013-11-22 14:35:00,49.5,48.9,28.85,SE,135,3.1,3.1,98,0.00,,---,0.00,VWS V14.01,2013-11-22 19:35:00,
2013-11-22 14:40:00,49.5,48.9,28.85,SE,135,3.1,3.1,98,0.00,,---,0.00,VWS V14.01,2013-11-22 19:40:00,
2013-11-22 14:45:00,49.3,48.7,28.85,SE,135,3.1,3.1,98,0.00,,---,0.00,VWS V14.01,2013-11-22 19:45:00,
2013-11-22 14:50:00,49.3,48.7,28.85,SE,135,3.1,3.1,98,0.00,,---,0.00,VWS V14.01,2013-11-22 19:50:00,
2013-11-22 14:55:00,49.1,48.6,28.85,SE,135,3.1,3.1,98,0.00,,---,0.00,VWS V14.01,2013-11-22 19:55:00,
2013-11-22 15:00:00,48.9,48.4,28.85,SE,135,3.1,3.1,98,0.00,,---,0.00,VWS V14.01,2013-11-22 20:00:00,
2013-11-22 15:05:00,48.7,48.2,28.85,SE,135,3.1,3.1,98,0.00,,---,0.00,VWS V14.01,2013-11-22 20:05:00,
2013-11-22 15:10:00,48.4,47.8,28.85,SE,135,3.1,3.1,98,0.00,,---,0.00,VWS V14.01,2013-11-22 20:10:00,
2013-11-22 15:15:00,48.0,47.5,28.85,SE,135,3.1,3.1,98,0.00,,---,0.00,VWS V14.01,2013-11-22 20:15:00,
2013-11-22 15:20:00,47.8,47.3,28.85,SE,135,3.1,3.1,98,0.00,,---,0.00,VWS V14.01,2013-11-22 20:20:00,
2013-11-22 15:25:00,47.7,47.1,28.85,SE,135,3.1,3.1,98,0.00,,---,0.00,VWS V14.01,2013-11-22 20:25:00,
2013-11-22 15:30:00,47.5,47.0,28.85,SE,135,3.1,3.1,98,0.00,,---,0.00,VWS V14.01,2013-11-22 20:30:00,
2013-11-22 15:35:00,47.5,47.0,28.85,SE,135,3.1,3.1,98,0.00,,---,0.00,VWS V14.01,2013-11-22 20:35:00,
2013-11-22 15:40:00,47.3,46.8,28.85,SE,135,3.1,3.1,98,0.00,,---,0.00,VWS V14.01,2013-11-22 20:40:00,
2013-11-22 15:46:00,47.1,46.3,28.85,SE,135,3.1,3.1,97,0.00,,---,0.00,VWS V14.01,2013-11-22 20:46:00,
2013-11-22 15:51:00,47.1,46.3,28.88,SE,135,3.1,3.1,97,0.00,,---,0.00,VWS V14.01,2013-11-22 20:51:00,
2013-11-22 15:56:00,46.9,46.1,28.88,SE,135,3.1,3.1,97,0.00,,---,0.00,VWS V14.01,2013-11-22 20:56:00,
2013-11-22 16:01:00,46.8,46.0,28.88,SE,135,3.1,3.1,97,0.00,,---,0.00,VWS V14.01,2013-11-22 21:01:00,
2013-11-22 16:06:00,46.8,46.0,28.88,SE,135,3.1,3.1,97,0.00,,---,0.00,VWS V14.01,2013-11-22 21:06:00,
2013-11-22 16:11:00,46.6,45.8,28.88,SE,135,3.1,3.1,97,0.00,,---,0.00,VWS V14.01,2013-11-22 21:11:00,
2013-11-22 16:16:00,46.4,45.6,28.88,SE,135,3.1,3.1,97,0.00,,---,0.00,VWS V14.01,2013-11-22 21:16:00,
2013-11-22 16:21:00,46.4,45.3,28.88,SE,135,3.1,3.1,96,0.00,,---,0.00,VWS V14.01,2013-11-22 21:21:00,
2013-11-22 16:26:00,46.2,45.4,28.88,SE,135,3.1,3.1,97,0.00,,---,0.00,VWS V14.01,2013-11-22 21:26:00,
2013-11-22 16:31:00,46.0,45.2,28.88,SE,135,3.1,3.1,97,0.00,,---,0.00,VWS V14.01,2013-11-22 21:31:00,
2013-11-22 16:36:00,46.0,45.2,28.88,SE,135,3.1,3.1,97,0.00,,---,0.00,VWS V14.01,2013-11-22 21:36:00,
2013-11-22 16:41:00,46.0,45.0,28.88,SE,135,3.1,3.1,96,0.00,,---,0.00,VWS V14.01,2013-11-22 21:41:00,
2013-11-22 16:46:00,45.9,44.8,28.88,SE,135,3.1,3.1,96,0.00,,---,0.00,VWS V14.01,2013-11-22 21:46:00,
2013-11-22 16:51:00,45.9,44.8,28.91,SE,135,3.1,3.1,96,0.00,,---,0.00,VWS V14.01,2013-11-22 21:51:00,
2013-11-22 16:56:00,45.9,44.8,28.91,SE,135,3.1,3.1,96,0.00,,---,0.00,VWS V14.01,2013-11-22 21:56:00,
2013-11-22 17:01:00,45.7,44.6,28.91,SE,135,3.1,3.1,96,0.00,,---,0.00,VWS V14.01,2013-11-22 22:01:00,
2013-11-22 17:06:00,45.7,44.6,28.91,SE,135,3.1,3.1,96,0.00,,---,0.00,VWS V14.01,2013-11-22 22:06:00,
2013-11-22 17:11:00,45.7,44.6,28.91,SE,135,3.1,3.1,96,0.00,,---,0.00,VWS V14.01,2013-11-22 22:11:00,
2013-11-22 17:16:00,45.5,44.4,28.91,SE,135,3.1,3.1,96,0.00,,---,0.00,VWS V14.01,2013-11-22 22:16:00,
2013-11-22 17:21:00,45.5,44.4,28.91,SE,135,3.1,3.1,96,0.00,,---,0.00,VWS V14.01,2013-11-22 22:21:00,
2013-11-22 17:26:00,45.5,44.4,28.91,SE,135,3.1,3.1,96,0.00,,---,0.00,VWS V14.01,2013-11-22 22:26:00,
2013-11-22 17:32:00,45.5,44.4,28.91,SE,135,3.1,3.1,96,0.00,,---,0.00,VWS V14.01,2013-11-22 22:32:00,
2013-11-22 17:37:00,45.5,44.4,28.91,SE,135,3.1,3.1,96,0.00,,---,0.00,VWS V14.01,2013-11-22 22:37:00,
2013-11-22 17:42:00,45.3,44.2,28.91,SE,135,3.1,3.1,96,0.00,,---,0.00,VWS V14.01,2013-11-22 22:42:00,
2013-11-22 17:47:00,45.3,44.2,28.91,SE,135,3.1,3.1,96,0.00,,---,0.00,VWS V14.01,2013-11-22 22:47:00,
2013-11-22 17:52:00,45.1,44.3,28.91,SE,135,3.1,3.1,97,0.00,,---,0.00,VWS V14.01,2013-11-22 22:52:00,
2013-11-22 17:57:00,44.1,42.7,28.91,SE,135,3.1,3.1,95,0.00,,---,0.00,VWS V14.01,2013-11-22 22:57:00,
2013-11-22 18:02:00,43.3,41.5,28.91,SE,135,3.1,3.1,93,0.00,,---,0.00,VWS V14.01,2013-11-22 23:02:00,
2013-11-22 18:07:00,42.8,40.6,28.91,SE,135,3.1,3.1,92,0.00,,---,0.00,VWS V14.01,2013-11-22 23:07:00,
2013-11-22 18:12:00,42.4,40.3,28.91,SE,135,3.1,3.1,92,0.00,,---,0.00,VWS V14.01,2013-11-22 23:12:00,
2013-11-22 18:17:00,42.1,39.7,28.91,SE,135,3.1,3.1,91,0.00,,---,0.00,VWS V14.01,2013-11-22 23:17:00,
2013-11-22 18:22:00,41.7,39.3,28.91,SE,135,3.1,3.1,91,0.00,,---,0.00,VWS V14.01,2013-11-22 23:22:00,
2013-11-22 18:27:00,41.5,39.1,28.91,SE,135,3.1,3.1,91,0.00,,---,0.00,VWS V14.01,2013-11-22 23:27:00,
2013-11-22 18:32:00,41.5,39.1,28.91,SE,135,3.1,3.1,91,0.00,,---,0.00,VWS V14.01,2013-11-22 23:32:00,
2013-11-22 18:37:00,41.2,38.8,28.91,SE,135,3.1,3.1,91,0.00,,---,0.00,VWS V14.01,2013-11-22 23:37:00,
2013-11-22 18:42:00,41.2,38.8,28.91,SE,135,3.1,3.1,91,0.00,,---,0.00,VWS V14.01,2013-11-22 23:42:00,
2013-11-22 18:47:00,40.8,38.7,28.91,SE,135,3.1,3.1,92,0.00,,---,0.00,VWS V14.01,2013-11-22 23:47:00,
2013-11-22 18:52:00,40.6,38.5,28.94,SE,135,3.1,3.1,92,0.00,,---,0.00,VWS V14.01,2013-11-22 23:52:00,
2013-11-22 18:57:00,40.5,38.3,28.94,SE,135,3.1,3.1,92,0.00,,---,0.00,VWS V14.01,2013-11-22 23:57:00,
2013-11-22 19:02:00,40.3,37.9,28.94,SE,135,3.1,3.1,91,0.00,,---,0.00,VWS V14.01,2013-11-23 00:02:00,
2013-11-22 19:07:00,40.1,37.4,28.97,SE,135,3.1,3.1,90,0.00,,---,0.00,VWS V14.01,2013-11-23 00:07:00,
2013-11-22 19:12:00,39.9,37.0,28.97,SE,135,3.1,3.1,89,0.00,,---,0.00,VWS V14.01,2013-11-23 00:12:00,
2013-11-22 19:18:00,39.7,36.8,28.97,SE,135,3.1,3.1,89,0.00,,---,0.00,VWS V14.01,2013-11-23 00:18:00,
2013-11-22 19:23:00,39.7,36.8,28.97,SE,135,3.1,3.1,89,0.00,,---,0.00,VWS V14.01,2013-11-23 00:23:00,
2013-11-22 19:28:00,39.7,36.8,28.97,SE,135,3.1,3.1,89,0.00,,---,0.00,VWS V14.01,2013-11-23 00:28:00,
2013-11-22 19:33:00,39.6,36.6,28.97,SE,135,3.1,3.1,89,0.00,,---,0.00,VWS V14.01,2013-11-23 00:33:00,
2013-11-22 19:38:00,39.4,36.7,28.97,SE,135,3.1,3.1,90,0.00,,---,0.00,VWS V14.01,2013-11-23 00:38:00,
2013-11-22 19:43:00,39.2,36.5,28.97,SE,135,3.1,3.1,90,0.00,,---,0.00,VWS V14.01,2013-11-23 00:43:00,
2013-11-22 19:48:00,38.7,36.0,28.97,SE,135,3.1,3.1,90,0.00,,---,0.00,VWS V14.01,2013-11-23 00:48:00,
2013-11-22 19:53:00,38.5,36.1,28.97,SE,135,3.1,3.1,91,0.00,,---,0.00,VWS V14.01,2013-11-23 00:53:00,
2013-11-22 19:58:00,38.3,35.9,28.97,SE,135,3.1,3.1,91,0.00,,---,0.00,VWS V14.01,2013-11-23 00:58:00,
2013-11-22 20:03:00,38.1,36.0,28.97,SE,135,3.1,3.1,92,0.00,,---,0.00,VWS V14.01,2013-11-23 01:03:00,
2013-11-22 20:08:00,38.1,36.0,28.97,SE,135,3.1,3.1,92,0.00,,---,0.00,VWS V14.01,2013-11-23 01:08:00,
2013-11-22 20:13:00,37.9,35.8,28.97,SE,135,3.1,3.1,92,0.00,,---,0.00,VWS V14.01,2013-11-23 01:13:00,
2013-11-22 20:18:00,37.6,35.2,28.97,SE,135,3.1,3.1,91,0.00,,---,0.00,VWS V14.01,2013-11-23 01:18:00,
2013-11-22 20:23:00,37.4,35.0,29.00,SE,135,3.1,3.1,91,0.00,,---,0.00,VWS V14.01,2013-11-23 01:23:00,
2013-11-22 20:28:00,37.4,35.0,29.00,SE,135,3.1,3.1,91,0.00,,---,0.00,VWS V14.01,2013-11-23 01:28:00,
2013-11-22 20:34:00,37.0,34.7,29.00,SE,135,3.1,3.1,91,0.00,,---,0.00,VWS V14.01,2013-11-23 01:34:00,
2013-11-22 20:39:00,37.0,34.7,29.00,SE,135,3.1,3.1,91,0.00,,---,0.00,VWS V14.01,2013-11-23 01:39:00,
2013-11-22 20:44:00,36.9,34.2,29.00,SE,135,3.1,3.1,90,0.00,,---,0.00,VWS V14.01,2013-11-23 01:44:00,
2013-11-22 20:49:00,36.9,34.2,29.00,SE,135,3.1,3.1,90,0.00,,---,0.00,VWS V14.01,2013-11-23 01:49:00,
2013-11-22 20:54:00,36.7,34.0,29.00,SE,135,3.1,3.1,90,0.00,,---,0.00,VWS V14.01,2013-11-23 01:54:00,
2013-11-22 20:59:00,36.7,33.8,29.00,SE,135,3.1,3.1,89,0.00,,---,0.00,VWS V14.01,2013-11-23 01:59:00,
2013-11-22 21:04:00,36.3,33.1,29.00,SE,135,3.1,3.1,88,0.00,,---,0.00,VWS V14.01,2013-11-23 02:04:00,
2013-11-22 21:09:00,36.3,33.1,29.03,SE,135,3.1,3.1,88,0.00,,---,0.00,VWS V14.01,2013-11-23 02:09:00,
2013-11-22 21:14:00,36.1,32.9,29.03,SE,135,3.1,3.1,88,0.00,,---,0.00,VWS V14.01,2013-11-23 02:14:00,
2013-11-22 21:20:00,36.1,32.7,29.03,SE,135,3.1,3.1,87,0.00,,---,0.00,VWS V14.01,2013-11-23 02:20:00,
2013-11-22 21:26:00,36.0,32.5,29.03,SE,135,3.1,3.1,87,0.00,,---,0.00,VWS V14.01,2013-11-23 02:26:00,
2013-11-22 21:31:00,36.0,32.5,29.03,SE,135,3.1,3.1,87,0.00,,---,0.00,VWS V14.01,2013-11-23 02:31:00,
2013-11-22 21:36:00,35.8,32.3,29.03,SE,135,3.1,3.1,87,0.00,,---,0.00,VWS V14.01,2013-11-23 02:36:00,
2013-11-22 21:42:00,35.8,32.3,29.03,SE,135,3.1,3.1,87,0.00,,---,0.00,VWS V14.01,2013-11-23 02:42:00,
2013-11-22 21:47:00,35.6,32.1,29.03,SE,135,3.1,3.1,87,0.00,,---,0.00,VWS V14.01,2013-11-23 02:47:00,
2013-11-22 21:52:00,35.6,32.1,29.03,SE,135,3.1,3.1,87,0.00,,---,0.00,VWS V14.01,2013-11-23 02:52:00,
2013-11-22 21:57:00,35.6,32.1,29.03,SE,135,3.1,3.1,87,0.00,,---,0.00,VWS V14.01,2013-11-23 02:57:00,
2013-11-22 22:02:00,35.4,31.9,29.03,SE,135,3.1,3.1,87,0.00,,---,0.00,VWS V14.01,2013-11-23 03:02:00,
2013-11-22 22:07:00,35.2,31.8,29.03,SE,135,3.1,3.1,87,0.00,,---,0.00,VWS V14.01,2013-11-23 03:07:00,
2013-11-22 22:12:00,35.2,31.8,29.03,SE,135,3.1,3.1,87,0.00,,---,0.00,VWS V14.01,2013-11-23 03:12:00,
2013-11-22 22:18:00,35.2,31.5,29.03,SE,135,3.1,3.1,86,0.00,,---,0.00,VWS V14.01,2013-11-23 03:18:00,
2013-11-22 22:23:00,35.2,31.5,29.03,SE,135,3.1,3.1,86,0.00,,---,0.00,VWS V14.01,2013-11-23 03:23:00,
2013-11-22 22:28:00,35.1,31.3,29.03,SE,135,3.1,3.1,86,0.00,,---,0.00,VWS V14.01,2013-11-23 03:28:00,
2013-11-22 22:33:00,35.1,31.6,29.03,SE,135,3.1,3.1,87,0.00,,---,0.00,VWS V14.01,2013-11-23 03:33:00,
2013-11-22 22:38:00,35.1,31.3,29.03,SE,135,3.1,3.1,86,0.00,,---,0.00,VWS V14.01,2013-11-23 03:38:00,
2013-11-22 22:43:00,35.1,31.3,29.03,SE,135,3.1,3.1,86,0.00,,---,0.00,VWS V14.01,2013-11-23 03:43:00,
2013-11-22 22:48:00,35.1,31.0,29.03,SE,135,3.1,3.1,85,0.00,,---,0.00,VWS V14.01,2013-11-23 03:48:00,
2013-11-22 22:53:00,35.1,31.0,29.03,SE,135,3.1,3.1,85,0.00,,---,0.00,VWS V14.01,2013-11-23 03:53:00,
2013-11-22 22:58:00,35.1,30.7,29.03,SE,135,3.1,3.1,84,0.00,,---,0.00,VWS V14.01,2013-11-23 03:58:00,
2013-11-22 23:04:00,35.1,30.4,29.03,SE,135,3.1,3.1,83,0.00,,---,0.00,VWS V14.01,2013-11-23 04:04:00,
2013-11-22 23:09:00,34.9,30.0,29.00,SE,135,3.1,3.1,82,0.00,,---,0.00,VWS V14.01,2013-11-23 04:09:00,
2013-11-22 23:14:00,34.7,29.8,29.00,SE,135,3.1,3.1,82,0.00,,---,0.00,VWS V14.01,2013-11-23 04:14:00,
2013-11-22 23:19:00,34.7,28.9,29.00,SE,135,3.1,3.1,79,0.00,,---,0.00,VWS V14.01,2013-11-23 04:19:00,
2013-11-22 23:24:00,34.5,28.1,29.03,SE,135,3.1,3.1,77,0.00,,---,0.00,VWS V14.01,2013-11-23 04:24:00,
2013-11-22 23:29:00,34.5,28.1,29.03,SE,135,3.1,3.1,77,0.00,,---,0.00,VWS V14.01,2013-11-23 04:29:00,
2013-11-22 23:35:00,34.3,28.2,29.03,SE,135,3.1,3.1,78,0.00,,---,0.00,VWS V14.01,2013-11-23 04:35:00,
2013-11-22 23:40:00,34.2,27.7,29.03,SE,135,3.1,3.1,77,0.00,,---,0.00,VWS V14.01,2013-11-23 04:40:00,
2013-11-22 23:45:00,34.2,27.7,29.03,SE,135,3.1,3.1,77,0.00,,---,0.00,VWS V14.01,2013-11-23 04:45:00,
2013-11-22 23:51:00,34.0,27.5,29.03,SE,135,3.1,3.1,77,0.00,,---,0.00,VWS V14.01,2013-11-23 04:51:00,
2013-11-22 23:56:00,33.8,27.7,29.03,SE,135,3.1,3.1,78,0.00,,---,0.00,VWS V14.01,2013-11-23 04:56:00,